Dr.Michael Heilos
Wetterdaten: aktuell Mittwoch, 01.12.2021 00:40
Datum Zeit Temp. A. Feuchte A. Luftdruck Regen Wind Richtung Richtung Sonnenschein Solar Windchill Windben
01.12.2021 00:40 7,6 C 72 % 1004,6 hPa 0,2 l/m 3,0 km/h (1 Bft) SW 221 0 min 0 W/m 7,6 C 9,7 km/h (2 Bft)
01.12.2021 00:30 7,3 C 72 % 1004,8 hPa 0,0 l/m 2,2 km/h (1 Bft) S-SW 209 0 min 0 W/m 7,3 C 8,0 km/h (2 Bft)
01.12.2021 00:20 7,1 C 72 % 1005,1 hPa 0,4 l/m 1,5 km/h (1 Bft) S-SW 193 0 min 0 W/m 7,1 C 6,4 km/h (2 Bft)
01.12.2021 00:10 6,8 C 72 % 1005,4 hPa 0,2 l/m 0,7 km/h (0 Bft) S-SW 199 0 min 0 W/m 6,8 C 6,4 km/h (2 Bft)
01.12.2021 00:00 6,7 C 72 % 1005,6 hPa 0,0 l/m 0,6 km/h (0 Bft) S 174 0 min 0 W/m 6,7 C 4,8 km/h (1 Bft)
30.11.2021 23:50 6,7 C 72 % 1005,7 hPa 0,2 l/m 0,7 km/h (0 Bft) S-SW 200 0 min 0 W/m 6,7 C 3,2 km/h (1 Bft)
30.11.2021 23:40 6,6 C 72 % 1006,0 hPa 0,6 l/m 1,2 km/h (1 Bft) S-SW 200 0 min 0 W/m 6,6 C 4,8 km/h (1 Bft)
30.11.2021 23:30 6,6 C 72 % 1006,1 hPa 0,2 l/m 0,2 km/h (0 Bft) S-SW 200 0 min 0 W/m 6,6 C 3,2 km/h (1 Bft)
30.11.2021 23:20 6,6 C 72 % 1006,3 hPa 0,0 l/m 0,5 km/h (0 Bft) S-SW 200 0 min 0 W/m 6,6 C 3,2 km/h (1 Bft)
30.11.2021 23:10 6,6 C 72 % 1006,3 hPa 0,0 l/m 1,2 km/h (1 Bft) S-SW 200 0 min 0 W/m 6,6 C 4,8 km/h (1 Bft)
30.11.2021 23:00 6,6 C 72 % 1006,5 hPa 0,0 l/m 0,9 km/h (0 Bft) SW 229 0 min 0 W/m 6,6 C 4,8 km/h (1 Bft)
30.11.2021 22:50 6,6 C 72 % 1006,6 hPa 0,0 l/m 2,5 km/h (1 Bft) SW 233 0 min 0 W/m 6,6 C 6,4 km/h (2 Bft)
30.11.2021 22:40 6,6 C 72 % 1006,5 hPa 0,2 l/m 2,0 km/h (1 Bft) SW 229 0 min 0 W/m 6,6 C 6,4 km/h (2 Bft)
30.11.2021 22:30 6,6 C 72 % 1006,7 hPa 0,0 l/m 2,8 km/h (1 Bft) W-SW 240 0 min 0 W/m 6,6 C 8,0 km/h (2 Bft)
30.11.2021 22:20 6,5 C 72 % 1006,8 hPa 0,0 l/m 3,1 km/h (1 Bft) SW 219 0 min 0 W/m 6,5 C 9,7 km/h (2 Bft)
30.11.2021 22:10 6,5 C 72 % 1006,8 hPa 0,0 l/m 2,3 km/h (1 Bft) SW 220 0 min 0 W/m 6,5 C 6,4 km/h (2 Bft)
30.11.2021 22:00 6,4 C 72 % 1007,0 hPa 0,0 l/m 2,4 km/h (1 Bft) W-SW 238 0 min 0 W/m 6,4 C 6,4 km/h (2 Bft)
30.11.2021 21:50 6,4 C 72 % 1007,1 hPa 0,0 l/m 3,4 km/h (1 Bft) W-SW 239 0 min 0 W/m 6,4 C 11,3 km/h (2 Bft)
30.11.2021 21:40 6,4 C 72 % 1007,2 hPa 0,0 l/m 3,2 km/h (1 Bft) W-SW 242 0 min 0 W/m 6,4 C 11,3 km/h (2 Bft)
30.11.2021 21:30 6,4 C 72 % 1007,3 hPa 0,0 l/m 4,1 km/h (1 Bft) W-SW 257 0 min 0 W/m 6,4 C 14,5 km/h (3 Bft)
30.11.2021 21:20 6,4 C 72 % 1007,3 hPa 0,0 l/m 4,1 km/h (1 Bft) SW 223 0 min 0 W/m 6,4 C 9,7 km/h (2 Bft)
30.11.2021 21:10 6,4 C 72 % 1007,3 hPa 0,0 l/m 4,0 km/h (1 Bft) W-SW 242 0 min 0 W/m 6,4 C 12,9 km/h (3 Bft)
30.11.2021 21:00 6,4 C 72 % 1007,4 hPa 0,0 l/m 5,1 km/h (1 Bft) SW 231 0 min 0 W/m 6,4 C 12,9 km/h (3 Bft)
30.11.2021 20:50 6,4 C 72 % 1007,5 hPa 0,0 l/m 5,7 km/h (1 Bft) W-SW 252 0 min 0 W/m 6,4 C 14,5 km/h (3 Bft)
30.11.2021 20:40 6,4 C 72 % 1007,5 hPa 0,0 l/m 6,6 km/h (2 Bft) W-SW 249 0 min 0 W/m 6,3 C 17,7 km/h (3 Bft)
30.11.2021 20:30 6,4 C 71 % 1007,5 hPa 0,0 l/m 6,5 km/h (2 Bft) W-SW 256 0 min 0 W/m 6,3 C 17,7 km/h (3 Bft)
30.11.2021 20:20 6,4 C 71 % 1007,6 hPa 0,0 l/m 6,5 km/h (2 Bft) SW 217 0 min 0 W/m 6,3 C 16,1 km/h (3 Bft)
30.11.2021 20:10 6,4 C 71 % 1007,5 hPa 0,0 l/m 7,6 km/h (2 Bft) W-NW 293 0 min 0 W/m 5,4 C 16,1 km/h (3 Bft)
30.11.2021 20:00 6,4 C 71 % 1007,5 hPa 0,0 l/m 5,8 km/h (2 Bft) W-SW 249 0 min 0 W/m 6,4 C 16,1 km/h (3 Bft)
30.11.2021 19:50 6,4 C 71 % 1007,4 hPa 0,0 l/m 7,4 km/h (2 Bft) W-SW 257 0 min 0 W/m 5,6 C 19,3 km/h (3 Bft)
30.11.2021 19:40 6,4 C 71 % 1007,5 hPa 0,0 l/m 7,0 km/h (2 Bft) NW 314 0 min 0 W/m 5,9 C 17,7 km/h (3 Bft)
30.11.2021 19:30 6,3 C 71 % 1007,4 hPa 0,2 l/m 4,7 km/h (1 Bft) W 261 0 min 0 W/m 6,3 C 14,5 km/h (3 Bft)
30.11.2021 19:20 6,3 C 71 % 1007,3 hPa 0,0 l/m 5,2 km/h (1 Bft) W 271 0 min 0 W/m 6,3 C 17,7 km/h (3 Bft)
30.11.2021 19:10 6,3 C 71 % 1007,3 hPa 0,0 l/m 6,6 km/h (2 Bft) SW 228 0 min 0 W/m 6,2 C 17,7 km/h (3 Bft)
30.11.2021 19:00 6,3 C 71 % 1007,3 hPa 0,0 l/m 5,4 km/h (1 Bft) W-SW 244 0 min 0 W/m 6,3 C 12,9 km/h (3 Bft)
30.11.2021 18:50 6,3 C 71 % 1007,3 hPa 0,0 l/m 6,4 km/h (2 Bft) W-SW 240 0 min 0 W/m 6,3 C 17,7 km/h (3 Bft)
30.11.2021 18:40 6,3 C 71 % 1007,1 hPa 0,0 l/m 5,8 km/h (2 Bft) W-SW 254 0 min 0 W/m 6,3 C 17,7 km/h (3 Bft)
30.11.2021 18:30 6,4 C 71 % 1007,1 hPa 0,0 l/m 6,5 km/h (2 Bft) NW 326 0 min 0 W/m 6,3 C 16,1 km/h (3 Bft)
30.11.2021 18:20 6,4 C 71 % 1007,0 hPa 0,2 l/m 6,9 km/h (2 Bft) W-SW 255 0 min 0 W/m 6,0 C 16,1 km/h (3 Bft)
30.11.2021 18:10 6,4 C 71 % 1007,0 hPa 0,2 l/m 5,5 km/h (1 Bft) SW 225 0 min 0 W/m 6,4 C 17,7 km/h (3 Bft)
30.11.2021 18:00 6,5 C 71 % 1006,9 hPa 0,0 l/m 3,5 km/h (1 Bft) W 266 0 min 0 W/m 6,5 C 14,5 km/h (3 Bft)
30.11.2021 17:50 6,5 C 71 % 1006,7 hPa 0,2 l/m 4,6 km/h (1 Bft) N-NW 333 0 min 0 W/m 6,5 C 14,5 km/h (3 Bft)
30.11.2021 17:40 6,5 C 71 % 1006,6 hPa 0,0 l/m 7,0 km/h (2 Bft) W 269 0 min 0 W/m 6,0 C 20,9 km/h (4 Bft)
30.11.2021 17:30 6,6 C 71 % 1006,6 hPa 0,0 l/m 7,9 km/h (2 Bft) W-NW 296 0 min 0 W/m 5,4 C 24,1 km/h (4 Bft)
30.11.2021 17:20 6,6 C 71 % 1006,5 hPa 0,0 l/m 7,7 km/h (2 Bft) W-SW 241 0 min 0 W/m 5,5 C 19,3 km/h (3 Bft)
30.11.2021 17:10 6,6 C 71 % 1006,4 hPa 0,2 l/m 9,5 km/h (2 Bft) W-SW 257 0 min 0 W/m 4,2 C 22,5 km/h (4 Bft)
30.11.2021 17:00 6,7 C 71 % 1006,2 hPa 0,0 l/m 6,7 km/h (2 Bft) SW 236 0 min 0 W/m 6,5 C 22,5 km/h (4 Bft)
30.11.2021 16:50 6,7 C 71 % 1006,3 hPa 0,2 l/m 7,3 km/h (2 Bft) SW 234 0 min 0 W/m 6,0 C 17,7 km/h (3 Bft)
30.11.2021 16:40 6,7 C 71 % 1006,2 hPa 0,0 l/m 9,4 km/h (2 Bft) W-NW 294 0 min 0 W/m 4,4 C 25,7 km/h (4 Bft)
30.11.2021 16:30 6,7 C 71 % 1006,2 hPa 0,2 l/m 11,0 km/h (2 Bft) W 261 0 min 0 W/m 3,3 C 22,5 km/h (4 Bft)
30.11.2021 16:20 6,7 C 71 % 1006,0 hPa 0,0 l/m 10,3 km/h (2 Bft) W-SW 256 0 min 0 W/m 3,8 C 22,5 km/h (4 Bft)
30.11.2021 16:10 6,8 C 71 % 1005,9 hPa 0,0 l/m 8,2 km/h (2 Bft) W 262 0 min 0 W/m 5,3 C 24,1 km/h (4 Bft)
30.11.2021 16:00 6,8 C 71 % 1005,9 hPa 0,2 l/m 9,7 km/h (2 Bft) W-SW 239 0 min 0 W/m 4,3 C 33,8 km/h (5 Bft)
30.11.2021 15:50 6,8 C 71 % 1005,8 hPa 0,2 l/m 9,9 km/h (2 Bft) W 281 0 min 0 W/m 4,1 C 22,5 km/h (4 Bft)
30.11.2021 15:40 6,8 C 71 % 1005,4 hPa 0,2 l/m 7,9 km/h (2 Bft) SW 214 0 min 0 W/m 5,6 C 17,7 km/h (3 Bft)
30.11.2021 15:30 6,9 C 71 % 1005,5 hPa 0,2 l/m 7,6 km/h (2 Bft) W 262 0 min 0 W/m 5,9 C 19,3 km/h (3 Bft)
30.11.2021 15:20 6,9 C 71 % 1005,2 hPa 0,2 l/m 9,7 km/h (2 Bft) W-SW 257 0 min 7 W/m 4,4 C 25,7 km/h (4 Bft)
30.11.2021 15:10 6,9 C 71 % 1005,3 hPa 0,2 l/m 9,1 km/h (2 Bft) W 263 0 min 0 W/m 4,8 C 20,9 km/h (4 Bft)
30.11.2021 15:00 6,9 C 71 % 1005,0 hPa 0,0 l/m 8,1 km/h (2 Bft) SW 227 0 min 0 W/m 5,5 C 20,9 km/h (4 Bft)
30.11.2021 14:50 6,9 C 71 % 1004,9 hPa 0,2 l/m 8,7 km/h (2 Bft) W-SW 248 0 min 5 W/m 5,1 C 22,5 km/h (4 Bft)
30.11.2021 14:40 6,9 C 71 % 1004,9 hPa 0,0 l/m 7,7 km/h (2 Bft) W-NW 296 0 min 5 W/m 5,8 C 17,7 km/h (3 Bft)
30.11.2021 14:30 7,0 C 71 % 1004,6 hPa 0,0 l/m 7,9 km/h (2 Bft) W-SW 238 0 min 5 W/m 5,8 C 22,5 km/h (4 Bft)
30.11.2021 14:20 7,0 C 71 % 1004,8 hPa 0,2 l/m 8,9 km/h (2 Bft) W-NW 284 0 min 9 W/m 5,0 C 24,1 km/h (4 Bft)
30.11.2021 14:10 7,0 C 71 % 1004,8 hPa 0,0 l/m 9,6 km/h (2 Bft) SW 218 0 min 18 W/m 4,5 C 22,5 km/h (4 Bft)
30.11.2021 14:00 7,1 C 71 % 1004,9 hPa 0,0 l/m 10,1 km/h (2 Bft) SW 232 0 min 11 W/m 4,3 C 27,4 km/h (4 Bft)
30.11.2021 13:50 7,1 C 71 % 1004,7 hPa 0,2 l/m 11,9 km/h (2 Bft) SW 235 0 min 12 W/m 3,2 C 25,7 km/h (4 Bft)
30.11.2021 13:40 7,1 C 71 % 1004,6 hPa 0,0 l/m 11,9 km/h (2 Bft) SW 226 0 min 25 W/m 3,2 C 22,5 km/h (4 Bft)
30.11.2021 13:30 7,1 C 71 % 1004,5 hPa 0,0 l/m 10,5 km/h (2 Bft) W-SW 242 0 min 28 W/m 4,1 C 24,1 km/h (4 Bft)
30.11.2021 13:20 7,2 C 71 % 1004,5 hPa 0,0 l/m 12,9 km/h (3 Bft) S-SW 195 0 min 18 W/m 2,8 C 30,6 km/h (5 Bft)
30.11.2021 13:10 7,2 C 71 % 1004,4 hPa 0,0 l/m 13,3 km/h (3 Bft) SW 236 0 min 40 W/m 2,6 C 25,7 km/h (4 Bft)
30.11.2021 13:00 7,1 C 71 % 1004,2 hPa 0,4 l/m 12,6 km/h (3 Bft) SW 230 0 min 33 W/m 2,8 C 27,4 km/h (4 Bft)
30.11.2021 12:50 7,1 C 71 % 1004,3 hPa 0,0 l/m 13,3 km/h (3 Bft) SW 233 0 min 12 W/m 2,5 C 37,0 km/h (5 Bft)
30.11.2021 12:40 7,0 C 71 % 1004,1 hPa 0,2 l/m 11,4 km/h (2 Bft) W-SW 241 0 min 21 W/m 3,4 C 30,6 km/h (5 Bft)
30.11.2021 12:30 6,9 C 71 % 1004,2 hPa 0,2 l/m 11,3 km/h (2 Bft) W-SW 250 0 min 33 W/m 3,4 C 30,6 km/h (5 Bft)
30.11.2021 12:20 6,8 C 71 % 1004,0 hPa 0,2 l/m 11,9 km/h (2 Bft) W-NW 285 0 min 28 W/m 2,9 C 27,4 km/h (4 Bft)
30.11.2021 12:10 6,7 C 71 % 1004,0 hPa 0,4 l/m 11,0 km/h (2 Bft) W-NW 291 0 min 14 W/m 3,3 C 24,1 km/h (4 Bft)
30.11.2021 12:00 6,6 C 71 % 1004,0 hPa 0,4 l/m 8,9 km/h (2 Bft) W-SW 258 0 min 23 W/m 4,6 C 24,1 km/h (4 Bft)
30.11.2021 11:50 6,6 C 71 % 1004,2 hPa 0,4 l/m 9,4 km/h (2 Bft) SW 231 0 min 25 W/m 4,2 C 27,4 km/h (4 Bft)
30.11.2021 11:40 6,4 C 71 % 1004,2 hPa 0,6 l/m 11,9 km/h (2 Bft) W-NW 286 0 min 16 W/m 2,4 C 24,1 km/h (4 Bft)
30.11.2021 11:30 6,3 C 71 % 1004,1 hPa 0,4 l/m 11,4 km/h (2 Bft) W-SW 238 0 min 32 W/m 2,6 C 30,6 km/h (5 Bft)
30.11.2021 11:20 6,2 C 71 % 1004,2 hPa 0,2 l/m 11,0 km/h (2 Bft) W-SW 242 0 min 18 W/m 2,7 C 27,4 km/h (4 Bft)
30.11.2021 11:10 6,1 C 71 % 1004,2 hPa 0,4 l/m 12,5 km/h (3 Bft) W-SW 242 0 min 23 W/m 1,7 C 27,4 km/h (4 Bft)
30.11.2021 11:00 6,1 C 71 % 1004,1 hPa 0,2 l/m 10,2 km/h (2 Bft) W 259 0 min 26 W/m 3,2 C 30,6 km/h (5 Bft)
30.11.2021 10:50 5,9 C 71 % 1004,2 hPa 0,2 l/m 12,2 km/h (2 Bft) SW 236 0 min 14 W/m 1,7 C 29,0 km/h (5 Bft)
30.11.2021 10:40 5,8 C 71 % 1004,3 hPa 0,2 l/m 12,9 km/h (3 Bft) W 281 0 min 11 W/m 1,2 C 32,2 km/h (5 Bft)
30.11.2021 10:30 5,8 C 71 % 1004,5 hPa 0,2 l/m 13,5 km/h (3 Bft) W 277 0 min 23 W/m 0,8 C 32,2 km/h (5 Bft)
30.11.2021 10:20 5,7 C 71 % 1004,4 hPa 0,4 l/m 14,9 km/h (3 Bft) SW 217 0 min 16 W/m -0,0 C 33,8 km/h (5 Bft)
30.11.2021 10:10 5,7 C 71 % 1004,4 hPa 0,2 l/m 14,7 km/h (3 Bft) W-SW 238 0 min 14 W/m 0,1 C 33,8 km/h (5 Bft)
30.11.2021 10:00 5,6 C 71 % 1004,4 hPa 0,0 l/m 15,5 km/h (3 Bft) SW 231 0 min 23 W/m -0,4 C 33,8 km/h (5 Bft)
30.11.2021 09:50 5,4 C 71 % 1004,5 hPa 0,2 l/m 14,2 km/h (3 Bft) SW 223 0 min 18 W/m -0,0 C 45,1 km/h (6 Bft)
30.11.2021 09:40 5,4 C 71 % 1004,6 hPa 0,0 l/m 13,6 km/h (3 Bft) W-SW 252 0 min 14 W/m 0,3 C 32,2 km/h (5 Bft)
30.11.2021 09:30 5,3 C 71 % 1004,5 hPa 0,0 l/m 15,0 km/h (3 Bft) SW 221 0 min 14 W/m -0,6 C 43,5 km/h (6 Bft)
30.11.2021 09:20 5,1 C 71 % 1004,8 hPa 0,0 l/m 15,4 km/h (3 Bft) SW 234 0 min 7 W/m -1,0 C 32,2 km/h (5 Bft)
30.11.2021 09:10 5,0 C 71 % 1004,7 hPa 0,2 l/m 13,3 km/h (3 Bft) SW 221 0 min 5 W/m -0,0 C 40,2 km/h (6 Bft)
30.11.2021 09:00 4,7 C 71 % 1004,8 hPa 0,2 l/m 11,0 km/h (2 Bft) S-SW 208 0 min 0 W/m 1,1 C 25,7 km/h (4 Bft)
30.11.2021 08:50 4,5 C 71 % 1004,7 hPa 0,4 l/m 10,9 km/h (2 Bft) W 267 0 min 0 W/m 0,9 C 24,1 km/h (4 Bft)
30.11.2021 08:40 4,4 C 71 % 1004,7 hPa 0,4 l/m 13,5 km/h (3 Bft) SW 236 0 min 0 W/m -0,8 C 27,4 km/h (4 Bft)
30.11.2021 08:30 4,2 C 71 % 1004,6 hPa 0,0 l/m 13,0 km/h (3 Bft) SW 232 0 min 0 W/m -0,8 C 30,6 km/h (5 Bft)
30.11.2021 08:20 4,1 C 71 % 1004,7 hPa 0,0 l/m 12,4 km/h (3 Bft) W-SW 248 0 min 0 W/m -0,5 C 25,7 km/h (4 Bft)
30.11.2021 08:10 3,9 C 70 % 1004,5 hPa 0,0 l/m 13,5 km/h (3 Bft) W-SW 245 0 min 0 W/m -1,4 C 33,8 km/h (5 Bft)
30.11.2021 08:00 3,8 C 70 % 1004,7 hPa 0,2 l/m 12,8 km/h (3 Bft) SW 225 0 min 0 W/m -1,1 C 32,2 km/h (5 Bft)
30.11.2021 07:50 3,7 C 70 % 1004,8 hPa 0,0 l/m 14,6 km/h (3 Bft) S-SW 206 0 min 0 W/m -2,3 C 35,4 km/h (5 Bft)
30.11.2021 07:40 3,6 C 70 % 1005,0 hPa 0,0 l/m 12,7 km/h (3 Bft) SW 230 0 min 0 W/m -1,3 C 32,2 km/h (5 Bft)
30.11.2021 07:30 3,4 C 70 % 1005,1 hPa 0,2 l/m 14,4 km/h (3 Bft) SW 219 0 min 0 W/m -2,5 C 32,2 km/h (5 Bft)
30.11.2021 07:20 3,3 C 70 % 1005,1 hPa 0,0 l/m 13,5 km/h (3 Bft) S 180 0 min 0 W/m -2,1 C 35,4 km/h (5 Bft)
30.11.2021 07:10 3,1 C 70 % 1005,6 hPa 0,0 l/m 12,5 km/h (3 Bft) S 190 0 min 0 W/m -1,8 C 30,6 km/h (5 Bft)
30.11.2021 07:00 3,0 C 70 % 1005,5 hPa 0,2 l/m 12,5 km/h (3 Bft) S-SW 208 0 min 0 W/m -1,9 C 30,6 km/h (5 Bft)
30.11.2021 06:50 2,9 C 70 % 1005,8 hPa 0,0 l/m 11,6 km/h (2 Bft) W-SW 237 0 min 0 W/m -1,4 C 25,7 km/h (4 Bft)
30.11.2021 06:40 2,7 C 70 % 1005,8 hPa 0,0 l/m 10,8 km/h (2 Bft) W-SW 249 0 min 0 W/m -1,1 C 24,1 km/h (4 Bft)
30.11.2021 06:30 2,6 C 70 % 1005,9 hPa 0,2 l/m 12,8 km/h (3 Bft) S-SW 213 0 min 0 W/m -2,5 C 27,4 km/h (4 Bft)
30.11.2021 06:20 2,3 C 70 % 1006,1 hPa 0,0 l/m 13,7 km/h (3 Bft) SW 227 0 min 0 W/m -3,4 C 32,2 km/h (5 Bft)
30.11.2021 06:10 2,0 C 71 % 1006,3 hPa 0,2 l/m 9,4 km/h (2 Bft) SW 234 0 min 0 W/m -0,8 C 20,9 km/h (4 Bft)
30.11.2021 06:00 1,6 C 71 % 1006,5 hPa 0,0 l/m 8,0 km/h (2 Bft) SW 229 0 min 0 W/m 0,0 C 22,5 km/h (4 Bft)
30.11.2021 05:50 1,4 C 70 % 1006,6 hPa 0,2 l/m 7,3 km/h (2 Bft) W-SW 255 0 min 0 W/m 0,5 C 25,7 km/h (4 Bft)
30.11.2021 05:40 1,3 C 70 % 1006,9 hPa 0,0 l/m 7,6 km/h (2 Bft) SW 215 0 min 0 W/m 0,1 C 22,5 km/h (4 Bft)
30.11.2021 05:30 1,3 C 70 % 1007,3 hPa 0,2 l/m 5,9 km/h (2 Bft) SW 226 0 min 0 W/m 1,3 C 20,9 km/h (4 Bft)
30.11.2021 05:20 1,4 C 70 % 1007,7 hPa 0,2 l/m 6,3 km/h (2 Bft) SW 229 0 min 0 W/m 1,4 C 17,7 km/h (3 Bft)
30.11.2021 05:10 1,4 C 70 % 1008,0 hPa 0,0 l/m 7,9 km/h (2 Bft) W-SW 247 0 min 0 W/m -0,1 C 17,7 km/h (3 Bft)
30.11.2021 05:00 1,4 C 70 % 1008,4 hPa 0,0 l/m 8,3 km/h (2 Bft) SW 219 0 min 0 W/m -0,5 C 22,5 km/h (4 Bft)
30.11.2021 04:50 1,4 C 69 % 1008,5 hPa 0,2 l/m 8,5 km/h (2 Bft) S 188 0 min 0 W/m -0,6 C 19,3 km/h (3 Bft)
30.11.2021 04:40 1,6 C 69 % 1008,6 hPa 0,0 l/m 10,5 km/h (2 Bft) SW 236 0 min 0 W/m -2,1 C 25,7 km/h (4 Bft)
30.11.2021 04:30 1,8 C 68 % 1008,9 hPa 0,0 l/m 13,1 km/h (3 Bft) SW 216 0 min 0 W/m -3,7 C 32,2 km/h (5 Bft)
30.11.2021 04:20 2,2 C 68 % 1009,2 hPa 0,2 l/m 9,7 km/h (2 Bft) W 277 0 min 0 W/m -0,8 C 24,1 km/h (4 Bft)
30.11.2021 04:10 2,4 C 67 % 1009,3 hPa 0,0 l/m 13,0 km/h (3 Bft) W-SW 247 0 min 0 W/m -2,9 C 32,2 km/h (5 Bft)
30.11.2021 04:00 2,9 C 65 % 1009,4 hPa 0,0 l/m 14,4 km/h (3 Bft) W-SW 251 0 min 0 W/m -3,1 C 40,2 km/h (6 Bft)
30.11.2021 03:50 3,3 C 65 % 1009,6 hPa 0,0 l/m 11,8 km/h (2 Bft) W-SW 239 0 min 0 W/m -1,1 C 30,6 km/h (5 Bft)
30.11.2021 03:40 3,4 C 66 % 1009,8 hPa 0,0 l/m 13,4 km/h (3 Bft) W 267 0 min 0 W/m -2,0 C 32,2 km/h (5 Bft)
30.11.2021 03:30 3,4 C 67 % 1009,7 hPa 0,2 l/m 10,3 km/h (2 Bft) W-SW 244 0 min 0 W/m 0,1 C 25,7 km/h (4 Bft)
30.11.2021 03:20 3,3 C 68 % 1010,1 hPa 0,0 l/m 10,0 km/h (2 Bft) SW 214 0 min 0 W/m 0,2 C 22,5 km/h (4 Bft)
30.11.2021 03:10 3,3 C 68 % 1010,2 hPa 0,0 l/m 8,9 km/h (2 Bft) W-SW 244 0 min 0 W/m 1,1 C 22,5 km/h (4 Bft)
30.11.2021 03:00 3,3 C 69 % 1010,1 hPa 0,0 l/m 10,2 km/h (2 Bft) S-SW 211 0 min 0 W/m 0,0 C 22,5 km/h (4 Bft)
30.11.2021 02:50 3,3 C 69 % 1010,7 hPa 0,0 l/m 10,3 km/h (2 Bft) S-SW 205 0 min 0 W/m -0,0 C 22,5 km/h (4 Bft)
30.11.2021 02:40 3,3 C 69 % 1010,8 hPa 0,0 l/m 9,8 km/h (2 Bft) W-SW 249 0 min 0 W/m 0,3 C 24,1 km/h (4 Bft)
30.11.2021 02:30 3,4 C 69 % 1010,6 hPa 0,0 l/m 9,4 km/h (2 Bft) W-SW 252 0 min 0 W/m 0,8 C 20,9 km/h (4 Bft)
30.11.2021 02:20 3,4 C 69 % 1010,6 hPa 0,0 l/m 10,4 km/h (2 Bft) W 261 0 min 0 W/m 0,0 C 22,5 km/h (4 Bft)
30.11.2021 02:10 3,4 C 70 % 1010,7 hPa 0,0 l/m 9,0 km/h (2 Bft) SW 230 0 min 0 W/m 1,1 C 20,9 km/h (4 Bft)
30.11.2021 02:00 3,3 C 70 % 1010,9 hPa 0,2 l/m 9,3 km/h (2 Bft) S 184 0 min 0 W/m 0,7 C 22,5 km/h (4 Bft)
30.11.2021 01:50 3,3 C 70 % 1011,0 hPa 0,0 l/m 8,1 km/h (2 Bft) S-SW 208 0 min 0 W/m 1,7 C 24,1 km/h (4 Bft)
30.11.2021 01:40 3,3 C 70 % 1011,1 hPa 0,0 l/m 7,7 km/h (2 Bft) SW 232 0 min 0 W/m 2,1 C 17,7 km/h (3 Bft)
30.11.2021 01:30 3,3 C 70 % 1011,1 hPa 0,0 l/m 8,0 km/h (2 Bft) W-SW 238 0 min 0 W/m 1,8 C 16,1 km/h (3 Bft)
30.11.2021 01:20 3,2 C 70 % 1011,2 hPa 0,0 l/m 8,0 km/h (2 Bft) SW 236 0 min 0 W/m 1,7 C 17,7 km/h (3 Bft)
30.11.2021 01:10 3,2 C 70 % 1011,2 hPa 0,0 l/m 7,9 km/h (2 Bft) W-SW 245 0 min 0 W/m 1,8 C 14,5 km/h (3 Bft)
30.11.2021 01:00 3,3 C 70 % 1011,2 hPa 0,2 l/m 8,1 km/h (2 Bft) S-SW 209 0 min 0 W/m 1,7 C 22,5 km/h (4 Bft)
_ Min-Zeit 05:30 03:50 12:00 - 23:30 - - - - 04:30 23:20
Minimum _ 1,3 C 65 % 1004,0 hPa - 0,2 km/h (0 Bft) - - - - -3,7 C 3,2 km/h (1 Bft)
_ Max-Zeit 00:40 20:40 01:00 11:40 10:00 - - 01:00 13:10 00:40 09:50
Maximum _ 7,6 C 72 % 1011,2 hPa 0,6 l/m 15,5 km/h
SW (3 Bft)
- - 0 min 40 W/m 7,6 C 45,1 km/h
N-NW (6 Bft)
Durchschnitt _ 5,2 C 71 % 1006,7 hPa #14,4 l/m 8,7 km/h (2 Bft) SW - #0 min. 0 W/m 2,9 C 22,0 km/h (4 Bft)